Regional Weather Roundup
Issued by NWS

Home | Current Version | Previous Version | Graphics & Text | Print | Product List | Glossary On
Versions: 1 2 3 4 5 6 7 8 9 10 11 12 13 14 15 16 17 18 19 20 21 22 23 24 25 26 27 28 29 30 31 32 33 34 35 36 37 38 39 40 41 42 43 44 45 46 47 48 49 50
000
ASUS43 KLMK 241410
RWRKY
KENTUCKY REGIONAL WEATHER ROUNDUP
NATIONAL WEATHER SERVICE LOUISVILLE KY
1000 AM EDT SAT JUN 24 2017

NOTE "FAIR" INDICATES FEW OR NO CLOUDS BELOW 12,000 FEET
WITH NO SIGNIFICANT WEATHER AND/OR OBSTRUCTIONS TO VISIBILITY.

KYZ001>023-026-027-061>063-070>075-241500-
WESTERN AND SOUTH CENTRAL KENTUCKY

CITY           SKY/WX    TMP DP  RH WIND       PRES   REMARKS
PADUCAH        SUNNY     74  59  59 N8        30.07R
HENDERSON      SUNNY     71  60  68 NW8       30.06R
OWENSBORO      SUNNY     71  61  70 NW8       30.05R
HOPKINSVILLE   SUNNY     73  61  65 N7        30.06R
BOWLING GREEN  SUNNY     73  64  73 N6        30.04R
GLASGOW        MOSUNNY   73  65  78 W6        30.03R
$$

KYZ024-025-028>034-038-045-046-053-241500-
NORTH CENTRAL KENTUCKY

CITY           SKY/WX    TMP DP  RH WIND       PRES   REMARKS
LOUISVILLE/SDF MOSUNNY   73  60  63 NW6       30.02R
LOUISVILLE/LOU SUNNY     72  62  71 W7        30.02R
FORT KNOX      SUNNY     69  61  76 NW7       30.02R
$$

KYZ035>037-039>044-047>052-055>060-089>105-241500-
NORTHEAST KENTUCKY

CITY           SKY/WX    TMP DP  RH WIND       PRES   REMARKS
LEXINGTON      MOSUNNY   71  62  73 W6        30.01S
COVINGTON      MOSUNNY   69  62  78 W9        29.99R
FRANKFORT      SUNNY     71  61  70 NW5       30.00R
$$

KYZ054-064>069-076>088-106>120-241500-
SOUTHEAST KENTUCKY

CITY           SKY/WX    TMP DP  RH WIND       PRES   REMARKS
JACKSON        MOSUNNY   70  66  87 CALM      30.01S
LONDON         MOSUNNY   73  63  70 W6        30.01S
SOMERSET       MOSUNNY   72  63  73 W3        30.03S
MIDDLESBORO    CLOUDY    71  69  93 CALM      30.01F
MONTICELLO     PTSUNNY   75  66  73 NW6       30.04R
$$





USA.gov is the U.S. government's official web portal to all federal, state and local government web resources and services.